Location: Cantaing
(50.1487°N, 3.1675°E)
Time: 16:42:05
(UTC+00:00)

ISS - Pass Details

Date: 11 March 2026
Orbit: 416 x 425 km, 51.6° (Epoch: 18 April)

Event Time Altitude Azimuth Distance (km) Brightness Sun altitude
Rises 18:37:43 0° 188° (S) 2,374 0.1 -9.1°
Reaches altitude 10° 18:41:27 10° 145° (SE) 1,513 -1.3 -9.7°
Maximum altitude 18:42:04 10° 135° (SE) 1,490 -1.4 -9.8°
Enters shadow 18:42:22 10° 130° (SE) 1,495 -1.5 -9.9°
